KC0VVH Weather Reports


Display with metric or nautical units.
time (UTC)temp
F
wind
direction
speed
MPH
gust
MPH
rain 1hr
in
rain 24hr
in
rain mn
in
humidity
%
barometer
mb
20260506140915 43 0 0.0 0.0 0.00 0.06 0.06 76 1017.9
20260506140015 43 0 0.0 0.0 0.00 0.06 0.06 76 1017.9
20260506135415 43 0 0.0 0.0 0.01 0.06 0.06 78 1017.9
20260506134503 42 0 0.0 0.0 0.01 0.06 0.06 80 1017.9
20260506133615 42 0 0.0 0.0 0.01 0.06 0.06 78 1017.9
20260506132736 42 0 0.0 0.0 0.02 0.06 0.06 78 1017.9
20260506131815 42 224 0.0 4.0 0.04 0.06 0.06 77 1017.9
20260506130936 42 224 0.0 4.0 0.05 0.06 0.06 78 1017.9
20260506130015 42 223 0.0 2.0 0.05 0.06 0.06 78 1017.9
20260506125403 42 223 1.0 8.0 0.05 0.05 0.05 77 1017.9
20260506124503 42 231 1.0 8.0 0.05 0.05 0.05 78 1017.9
20260506123636 42 261 4.0 12.0 0.05 0.05 0.05 76 1017.9
20260506122715 43 285 3.0 15.0 0.04 0.04 0.04 75 1017.9
20260506121815 44 285 3.0 13.0 0.02 0.02 0.03 74 1017.9
20260506120936 44 284 6.0 17.0 0.01 0.01 0.01 72 1017.9
20260506120015 46 288 8.0 20.0 0.01 0.01 0.01 68 1017.9
20260506115436 48 299 4.0 22.0 0.00 0.00 0.00 66 1017.9
20260506114536 49 292 5.0 22.0 0.00 0.00 0.00 58 1017.9
20260506113615 50 274 2.0 10.0 0.00 0.00 0.00 55 1017.9
20260506112736 50 283 1.0 9.0 0.00 0.00 0.00 53 1017.9
20260506111803 49 295 1.0 9.0 0.00 0.00 0.00 54 1017.9
20260506110915 49 317 1.0 10.0 0.00 0.00 0.00 56 1017.9
20260506110015 48 232 0.0 2.0 0.00 0.00 0.00 57 1017.9
20260506105415 48 0 0.0 0.0 0.00 0.00 0.00 58 1017.9
20260506104503 48 0 0.0 0.0 0.00 0.00 0.00 58 1017.9
20260506103636 48 0 0.0 0.0 0.00 0.00 0.00 59 1017.9
20260506102715 48 0 0.0 0.0 0.00 0.00 0.00 59 1017.9
20260506101803 49 0 0.0 0.0 0.00 0.00 0.00 59 1017.9
20260506100936 50 0 0.0 0.0 0.00 0.00 0.00 58 1017.9
20260506100015 51 0 0.0 0.0 0.00 0.00 0.00 55 1017.9
20260506095436 51 0 0.0 0.0 0.00 0.00 0.00 53 1017.9
20260506094515 51 232 0.0 5.0 0.00 0.00 0.00 54 1017.9
20260506093624 51 232 0.0 4.0 0.00 0.00 0.00 54 1017.9
20260506092715 50 0 0.0 0.0 0.00 0.00 0.00 54 1017.9
20260506091803 50 257 0.0 3.0 0.00 0.00 0.00 55 1017.9
20260506090915 49 236 0.0 4.0 0.00 0.00 0.00 58 1017.9
20260506090015 49 0 0.0 0.0 0.00 0.00 0.00 59 1017.9
20260506085415 49 0 0.0 0.0 0.00 0.00 0.00 59 1017.9
20260506084503 50 0 0.0 0.0 0.00 0.00 0.00 56 1017.9
20260506083603 51 0 0.0 0.0 0.00 0.00 0.00 54 1017.9
20260506082715 51 0 0.0 0.0 0.00 0.00 0.00 54 1017.9
20260506081824 52 0 0.0 0.0 0.00 0.00 0.00 53 1017.9
20260506080915 52 0 0.0 0.0 0.00 0.00 0.00 53 1017.9
20260506072715 53 296 1.0 7.0 0.00 0.00 0.00 53 1017.9
20260506071815 53 256 1.0 8.0 0.00 0.00 0.00 52 1017.9
20260506070915 53 257 0.0 5.0 0.00 0.00 0.00 51 1017.9
20260506061815 55 119 0.0 3.0 0.00 0.00 0.00 45 1017.9
20260506060915 56 227 0.0 5.0 0.00 0.00 0.00 45 1017.9
20260506050915 56 285 0.0 5.0 0.00 0.00 0.00 46 1017.9
20260506044503 56 289 0.0 7.0 0.00 0.00 0.00 45 1017.9
20260506043615 56 294 0.0 4.0 0.00 0.00 0.00 45 1017.9
20260506042715 57 256 0.0 5.0 0.00 0.00 0.00 44 1017.9
20260506041815 57 242 1.0 8.0 0.00 0.00 0.00 43 1017.9
20260506040915 57 228 1.0 6.0 0.00 0.00 0.00 43 1017.9
20260506040015 57 0 0.0 1.0 0.00 0.00 0.00 42 1017.9
20260506035403 57 256 0.0 5.0 0.00 0.00 0.00 42 1017.9
20260506034515 57 260 1.0 7.0 0.00 0.00 0.00 42 1017.9
20260506033615 57 266 0.0 6.0 0.00 0.00 0.00 41 1017.9
20260506032715 57 267 0.0 6.0 0.00 0.00 0.00 42 1017.9
20260506031803 57 268 0.0 4.0 0.00 0.00 0.00 42 1017.9
20260506030915 57 0 0.0 0.0 0.00 0.00 0.00 42 1017.9
20260506030015 57 309 0.0 4.0 0.00 0.00 0.00 42 1017.9
20260506025436 57 314 0.0 7.0 0.00 0.00 0.00 43 1017.9
20260506024536 56 0 0.0 0.0 0.00 0.00 0.00 43 1017.9
20260506023615 56 0 0.0 0.0 0.00 0.00 0.00 44 1017.9
20260506022703 56 0 0.0 0.0 0.00 0.00 0.00 44 1017.9
20260506021824 56 298 0.0 3.0 0.00 0.00 0.00 44 1017.9
20260506020915 57 291 1.0 9.0 0.00 0.00 0.00 44 1017.9
20260506020003 57 311 2.0 16.0 0.00 0.00 0.00 44 1017.9
20260506015436 57 305 3.0 16.0 0.00 0.00 0.00 43 1017.9
20260506014524 57 310 5.0 14.0 0.00 0.00 0.00 42 1017.9
20260506013615 58 297 7.0 17.0 0.00 0.00 0.00 42 1017.9
20260506012736 58 305 6.0 14.0 0.00 0.00 0.00 42 1017.9
20260506011803 58 317 5.0 18.0 0.00 0.00 0.00 42 1017.9
20260506010936 59 322 5.0 15.0 0.00 0.00 0.00 41 1017.9
20260506010003 59 310 7.0 17.0 0.00 0.00 0.00 40 1017.9
20260506005436 59 298 4.0 16.0 0.00 0.00 0.00 39 1017.9
20260506004515 60 295 7.0 17.0 0.00 0.00 0.00 38 1017.9
20260506003636 60 309 8.0 16.0 0.00 0.00 0.00 38 1017.9
20260506002715 61 309 6.0 18.0 0.00 0.00 0.00 37 1017.9
20260506001803 61 304 5.0 16.0 0.00 0.00 0.00 37 1017.9
20260506000915 61 311 7.0 16.0 0.00 0.00 0.00 38 1017.9
20260506000015 62 322 5.0 16.0 0.00 0.00 0.00 37 1017.9
20260505235436 62 323 7.0 21.0 0.00 0.00 0.00 36 1017.9
20260505234515 63 350 8.0 19.0 0.00 0.00 0.00 35 1017.9
20260505233615 66 326 9.0 21.0 0.00 0.00 0.00 32 1017.9
20260505232703 70 315 2.0 20.0 0.00 0.00 0.00 10 1017.9
20260505231803 71 276 2.0 11.0 0.00 0.00 0.00 8 1017.9
20260505230936 72 268 2.0 11.0 0.00 0.00 0.00 8 1017.9
20260505230015 72 252 2.0 11.0 0.00 0.00 0.00 8 1017.9
20260505225415 72 238 2.0 10.0 0.00 0.00 0.00 8 1017.9
20260505224503 72 272 4.0 13.0 0.00 0.00 0.00 9 1017.9
20260505223636 72 321 3.0 13.0 0.00 0.00 0.00 9 1017.9
20260505222736 71 235 2.0 17.0 0.00 0.00 0.00 9 1017.9
20260505221824 71 294 2.0 8.0 0.00 0.00 0.00 8 1017.9
20260505220915 72 302 2.0 14.0 0.00 0.00 0.00 9 1017.9
20260505220024 71 293 3.0 15.0 0.00 0.00 0.00 8 1017.9
20260505215415 71 300 3.0 15.0 0.00 0.00 0.00 8 1017.9
20260505214515 71 271 3.0 13.0 0.00 0.00 0.00 8 1017.9
20260505213615 72 255 3.0 13.0 0.00 0.00 0.00 7 1017.9
20260505212715 72 290 2.0 10.0 0.00 0.00 0.00 7 1017.9
20260505211815 71 256 2.0 10.0 0.00 0.00 0.00 8 1017.9
20260505210915 72 274 1.0 9.0 0.00 0.00 0.00 9 1017.9
20260505210015 72 229 2.0 9.0 0.00 0.00 0.00 9 1017.9
20260505205415 72 256 3.0 11.0 0.00 0.00 0.00 9 1017.9
20260505204515 72 312 2.0 11.0 0.00 0.00 0.00 10 1017.9
20260505203603 72 282 3.0 12.0 0.00 0.00 0.00 10 1017.9
20260505202715 72 297 2.0 10.0 0.00 0.00 0.00 10 1017.9
20260505201803 72 268 3.0 15.0 0.00 0.00 0.00 11 1017.9
20260505200903 72 245 2.0 13.0 0.00 0.00 0.00 10 1017.9
20260505200003 72 309 4.0 18.0 0.00 0.00 0.00 11 1017.9
20260505195415 72 314 5.0 18.0 0.00 0.00 0.00 11 1017.9
20260505194503 72 227 1.0 10.0 0.00 0.00 0.00 12 1017.9
20260505193615 71 294 2.0 14.0 0.00 0.00 0.00 13 1017.9
20260505192715 71 251 2.0 14.0 0.00 0.00 0.00 13 1017.9
20260505191815 71 315 3.0 16.0 0.00 0.00 0.00 14 1017.9
20260505190903 71 314 2.0 17.0 0.00 0.00 0.00 15 1017.9
20260505190015 70 296 3.0 19.0 0.00 0.00 0.00 16 1017.9
20260505185436 70 220 3.0 10.0 0.00 0.00 0.00 15 1017.9
20260505184515 70 281 3.0 15.0 0.00 0.00 0.00 15 1017.9
20260505183603 70 273 3.0 12.0 0.00 0.00 0.00 15 1017.9
20260505182715 70 324 4.0 15.0 0.00 0.00 0.00 15 1017.9
20260505181824 70 293 3.0 17.0 0.00 0.00 0.00 15 1017.9
20260505180915 69 198 2.0 14.0 0.00 0.00 0.00 16 1017.9
20260505180036 69 218 6.0 16.0 0.00 0.00 0.00 16 1017.9
20260505175403 69 314 5.0 16.0 0.00 0.00 0.00 16 1017.9
20260505174503 68 347 3.0 15.0 0.00 0.00 0.00 21 1017.9
20260505173615 67 91 1.0 6.0 0.00 0.00 0.00 28 1017.9
20260505172715 67 318 2.0 8.0 0.00 0.00 0.00 33 1017.9
20260505171815 67 70 4.0 10.0 0.00 0.00 0.00 33 1017.9
20260505170915 66 71 2.0 9.0 0.00 0.00 0.00 34 1017.9
20260505170003 66 71 2.0 6.0 0.00 0.00 0.00 35 1017.9
20260505165403 67 71 2.0 6.0 0.00 0.00 0.00 36 1017.9
20260505164515 66 71 1.0 5.0 0.00 0.00 0.00 36 1017.9
20260505163615 66 71 1.0 9.0 0.00 0.00 0.00 38 1017.9
20260505162715 65 74 2.0 9.0 0.00 0.00 0.00 36 1017.9
20260505161836 64 75 1.0 7.0 0.00 0.00 0.00 35 1017.9
20260505160924 63 76 1.0 5.0 0.00 0.00 0.00 39 1017.9
20260505152715 62 193 0.0 3.0 0.00 0.00 0.00 46 1017.9
20260505151815 61 193 0.0 3.0 0.00 0.00 0.00 48 1017.9
20260505150915 61 194 1.0 5.0 0.00 0.00 0.00 49 1017.9